Regional Weather Roundup
Issued by NWS

Home | Current Version | Previous Version | Text Only | Print | Product List | Glossary On
Versions: 1 2 3 4 5 6 7 8 9 10 11 12 13 14 15 16 17 18 19 20 21 22 23 24 25 26 27 28 29 30 31 32 33 34 35 36 37 38 39 40 41 42 43 44 45 46 47 48 49 50
000
ASCA42 TJSJ 030011
RWRPR
PUERTO RICO/U.S. VIRGIN ISLANDS HOURLY WEATHER ROUNDUP
NATIONAL WEATHER SERVICE SAN JUAN PR
800 PM AST TUE SEP 02 2014

PRZ001-004-030100-
PUERTO RICO

CITY           SKY/WX    TMP DP  RH WIND       PRES   REMARKS
SAN JUAN LMM   PTCLDY    82  77  83 E7        29.98R HX  91
PONCE          PTCLDY    82  77  83 NE6       29.93  HX  91
AGUADILLA      PTCLDY    79  75  89 SE3       29.98R
CEIBA          PTCLDY    82  75  78 E7        30.00R
$$

PRZ006-007-030100-
U.S. VIRGIN ISLANDS

CITY           SKY/WX    TMP DP  RH WIND       PRES   REMARKS
$$

HOURLY WEATHER ROUNDUP FOR THE NEWS MEDIA

CITY           SKY/WX    TMP DP  RH WIND       PRES   REMARKS
MIAMI          HVY RAIN  78  73  84 E3        30.03R
ORLANDO        PTCLDY    84  71  65 E9        30.02R
NEW YORK       PTCLDY    83  72  69 SW10      29.82S
NEWARK         MOCLDY    89  65  44 SW15      29.80R HX  91
CHICAGO        PTCLDY    76  56  49 W7        29.89S
HARTFORD       CLEAR     75  71  87 S8        29.81F
BOSTON         MOCLDY    80  72  76 SW9       29.78F
DALLAS         PTCLDY    94  67  41 S14G24    29.87F HX  97
PHILADELPHIA   TSTM      77  67  71 W25G46    29.91R



USA.gov is the U.S. government's official web portal to all federal, state and local government web resources and services.